Weather History for Ellensburg, WA

Change the Weather History Date:

Monday, July 8, 2013

  Actual Average (KYKM) Record (KYKM)
Temperature  
Mean Temperature 75 °F 69 °F  
Max Temperature 89 °F 86 °F 104 °F (2012)
Min Temperature 62 °F 52 °F 39 °F (1981)
Degree Days  
Heating Degree Days 0 1  
Month to date heating degree days 8  
Since 1 June heating degree days 106  
Since 1 July heating degree days 8  
Cooling Degree Days 10 5  
Month to date cooling degree days 36  
Year to date cooling degree days 121  
Since 1 June cooling degree days 101  
Growing Degree Days 25 (Base 50)    
Moisture  
Dew Point 50 °F    
Average Humidity 45    
Maximum Humidity 67    
Minimum Humidity 22    
Precipitation  
Precipitation 0.00 in 0.01 in 0.22 in (2012)
Month to date precipitation 0.08  
Year to date precipitation 4.37  
Snow  
Snow 0.00 in 0.00 in 0.00 in (2002)
Month to date snowfall 0.0  
Year to date snowfall 8.6  
Since 1 July snowfall 0.0  
Snow Depth -    
Sea Level Pressure  
Sea Level Pressure 29.93 in    
Wind  
Wind Speed 16 mph (NW)    
Max Wind Speed 21 mph    
Max Gust Speed 29 mph    
Visibility 10 miles    
Events      
T = Trace of Precipitation, MM = Missing Value Source: NWS Daily Summary

Daily Weather History Graph

Daily Weather History Graph

Search for Another Location

Airport:

Trip Planner

Search our weather history database for the weather conditions in past years. The results will help you decide how hot, cold, wet, or windy it might be!

Date:

Astronomy

Jul. 08, 2013 Rise Set
Actual Time 5:16 AM PDT 8:57 PM PDT
Civil Twilight 4:37 AM PDT 9:36 PM PDT
Nautical Twilight 3:44 AM PDT 10:29 PM PDT
Astronomical Twilight 2:31 AM PDT 11:41 PM PDT
Moon 5:56 AM PDT (7/8) 8:55 PM PDT (7/8)
Length of Visible Light 16h 59m
Length of Day
15h 41m
New Moon, 0% of the Moon is Illuminated
Jul 8
New Moon
Jul 15
First Quarter
Jul 22
Full
Jul 29
Last Quarter
Aug 6
New

Hourly Weather History & Observations

Time (PDT) Temp. Heat Index Dew Point Humidity Pressure Visibility Wind Dir Wind Speed Gust Speed Precip Events Conditions
12:53 AM 66.0 °F - 52.0 °F 60% 29.83 in 10.0 mi NW 17.3 mph - N/A   Clear
1:53 AM 64.9 °F - 52.0 °F 63% 29.84 in 10.0 mi NW 19.6 mph 25.3 mph N/A   Clear
2:53 AM 64.9 °F - 51.1 °F 61% 29.85 in 10.0 mi NNW 16.1 mph - N/A   Scattered Clouds
3:53 AM 64.0 °F - 51.1 °F 63% 29.87 in 10.0 mi NW 12.7 mph - N/A   Mostly Cloudy
4:53 AM 62.1 °F - 51.1 °F 67% 29.88 in 10.0 mi NW 15.0 mph - N/A   Partly Cloudy
5:53 AM 62.1 °F - 51.1 °F 67% 29.90 in 10.0 mi NW 13.8 mph - N/A   Clear
6:53 AM 64.9 °F - 51.1 °F 61% 29.92 in 10.0 mi NW 13.8 mph - N/A   Clear
7:53 AM 69.1 °F - 51.1 °F 53% 29.93 in 10.0 mi NW 18.4 mph 24.2 mph N/A   Clear
8:53 AM 72.0 °F - 51.1 °F 48% 29.93 in 10.0 mi WNW 17.3 mph - N/A   Clear
9:53 AM 75.9 °F - 52.0 °F 43% 29.94 in 10.0 mi NW 17.3 mph 25.3 mph N/A   Clear
10:53 AM 80.1 °F 79.9 °F 53.1 °F 39% 29.94 in 10.0 mi NW 17.3 mph 21.9 mph N/A   Clear
11:53 AM 82.0 °F - 51.1 °F 34% 29.95 in 10.0 mi WNW 13.8 mph - N/A   Clear
12:53 PM 84.0 °F - 46.9 °F 27% 29.96 in 10.0 mi NW 5.8 mph - N/A   Clear
1:53 PM 87.1 °F - 48.0 °F 26% 29.95 in 10.0 mi NW 10.4 mph 17.3 mph N/A   Clear
2:53 PM 88.0 °F - 46.0 °F 23% 29.94 in 10.0 mi NW 16.1 mph 19.6 mph N/A   Clear
3:53 PM 88.0 °F - 45.0 °F 22% 29.95 in 10.0 mi NNW 16.1 mph - N/A   Clear
4:53 PM 86.0 °F - 46.0 °F 25% 29.94 in 10.0 mi NW 17.3 mph 25.3 mph N/A   Clear
5:53 PM 84.0 °F - 46.9 °F 27% 29.95 in 10.0 mi NW 20.7 mph 27.6 mph N/A   Clear
6:53 PM 82.9 °F - 46.9 °F 28% 29.96 in 10.0 mi WNW 18.4 mph 27.6 mph N/A   Clear
7:53 PM 79.0 °F - 48.9 °F 35% 29.97 in 10.0 mi NW 18.4 mph 28.8 mph N/A   Clear
8:53 PM 75.0 °F - 50.0 °F 41% 29.98 in 10.0 mi NW 15.0 mph 25.3 mph N/A   Clear
9:53 PM 72.0 °F - 52.0 °F 49% 30.00 in 10.0 mi NW 13.8 mph - N/A   Clear
10:53 PM 70.0 °F - 53.1 °F 55% 30.02 in 10.0 mi NW 9.2 mph - N/A   Clear
11:53 PM 68.0 °F - 53.1 °F 59% 30.03 in 10.0 mi NW 8.1 mph - N/A   Clear